Home   Weather   Buenos Aires   Past weeks
Flag for Argentina

Past Weather in Buenos Aires, Argentina — Yesterday and Last 2 Weeks

Now
54 °F

Sunny.


Feels Like: 53 °F
Forecast: 56 / 40 °F
Wind: 5 mph from North

Location: Buenos Aires Airport

Current Time: Jul 16, 2019 at 12:12:01 pm

Latest Report: Jul 16, 2019 at 11:00 am


Visibility: 10 mi

Pressure: 30.30 "Hg

Humidity: 67%

Dew Point: 43 °F

Location of Buenos AiresLocation

Past Weather in Buenos Aires — Graph

°F

Buenos Aires Temperature Yesterday

Maximum temperature yesterday: 63 °F (at 3:00 pm)
Minimum temperature yesterday: 50 °F (at 2:00 am)
Average temperature yesterday: 55 °F

High & Low Weather Summary for the Past Weeks

 TemperatureHumidityPressure
High63 °F (Jul 12, 4:00 pm)100% (Jul 12, 12:40 am)30.45 "Hg (Jul 12, 12:40 am)
Low36 °F (Jul 5, 8:00 am)28% (Jul 6, 4:00 pm)29.62 "Hg (Jul 6, 1:00 am)
Average51 °F72%30.08 "Hg
* Reported Jul 1 10:00 am — Jul 16 10:00 am, Buenos Aires. Weather by CustomWeather, © 2019

Note: Actual official high and low records may vary slightly from our data, if they occured in-between our weather recording intervals... More about our weather records

Advertising

Buenos Aires Weather History for the Previous 24 Hours

Scroll right to see more
 ConditionsComfort  
Time TempWeatherWind HumidityBarometerVisibility
10:00 am
Tue, Jul 16
52 °FSunny.3 mph72%30.27 "Hg10 mi
9:00 am50 °FSunny.No wind71%30.27 "Hg10 mi
8:00 am46 °FSunny.2 mph82%30.27 "Hg10 mi
7:00 am46 °FClear.No wind82%30.24 "Hg10 mi
6:00 am46 °FClear.3 mph82%30.24 "Hg10 mi
5:00 am46 °FClear.2 mph82%30.21 "Hg10 mi
4:00 am46 °FClear.No wind82%30.21 "Hg10 mi
3:00 am46 °FClear.No wind82%30.21 "Hg10 mi
2:00 am48 °FPassing clouds.3 mph82%30.24 "HgN/A
1:00 am48 °FClear.No wind76%30.21 "Hg10 mi
12:00 am52 °FClear.3 mph67%30.21 "Hg10 mi
11:00 pm
Mon, Jul 15
52 °FClear.2 mph62%30.21 "Hg10 mi
10:00 pm54 °FClear.2 mph58%30.21 "Hg10 mi
9:00 pm55 °FClear.2 mph55%30.21 "Hg10 mi
8:00 pm55 °FClear.2 mph51%30.18 "Hg10 mi
7:00 pm57 °FClear.3 mph48%30.18 "Hg10 mi
6:00 pm59 °FPassing clouds.6 mph48%30.15 "HgN/A
5:00 pm61 °FPassing clouds.6 mph39%30.15 "HgN/A
4:00 pm63 °FPassing clouds.8 mph34%30.12 "HgN/A
3:00 pm63 °FPassing clouds.7 mph39%30.12 "HgN/A
2:00 pm61 °FPassing clouds.7 mph48%30.12 "HgN/A
1:00 pm59 °FPassing clouds.5 mph59%30.15 "HgN/A
12:00 pm57 °FPassing clouds.7 mph63%30.18 "HgN/A
Weather by CustomWeather, © 2019

See weather overview

LIVE PARTIAL LUNAR ECLIPSE – Watch the eclipse as it happens